Retour au catalogue

STARLINK-35936

ActifCommunicationsVLEO
NORAD 66620·PAYLOAD·🇺🇸 United States

Lancé Nov 23, 2025 depuis Vandenberg Space Force Base

Loading…

Prochains Passages (prochaines 24 heures)

TLE

FraisSource: CelesTrak SupGP

Époque: Sep 15, 2026, 03:43 UTC

1 66620C 25271D   26258.15534722  .00062107  00000+0  18342-2 0  2582
2 66620  53.1584 338.3878 0001202  85.4417 357.0546 15.34373113    14

Suivez STARLINK-35936 en temps réel avec AllMySat

Download on the App Store